"Time","Temp","Dewpoint","Humidity","Pressure","Direction","Speed","Gust","Precip","PrecipRate"
"00:04:59","56.3","51.8","85","30.05","344","0","0","0.00","0.00"
"00:09:57","56.2","51.7","85","30.05","344","0","0","0.00","0.00"
"00:14:56","55.9","51.8","85.9","30.06","344","0","0","0.00","0.00"
"00:19:59","55.8","51.7","86","30.06","344","0","0","0.00","0.00"
"00:24:59","55.6","51.5","86","30.06","344","0","0","0.00","0.00"
"00:29:58","55.5","51.4","86","30.06","344","0","0","0.00","0.00"
"00:34:58","55.3","51.4","86.7","30.06","344","0","0","0.00","0.00"
"00:39:57","55.2","51.4","87","30.06","344","0","0","0.00","0.00"
"00:44:58","55","51.2","87","30.06","344","0","0","0.00","0.00"
"00:49:57","55","51.2","87","30.06","344","0","0","0.00","0.00"
"00:54:57","55.1","51.5","87.7","30.06","344","0","0","0.00","0.00"
"00:59:56","55.1","51.3","87","30.06","344","0","0","0.00","0.00"
"01:04:59","55.1","51.3","87","30.06","344","0","0","0.00","0.00"
"01:09:58","55.1","51.3","87","30.06","344","0","0","0.00","0.00"
"01:14:56","55","51.2","87","30.06","344","0","0","0.00","0.00"
"01:19:59","54.9","51.1","87","30.05","344","0","0","0.00","0.00"
"01:24:58","54.8","51","87","30.05","344","0","0","0.00","0.00"
"01:29:58","54.7","50.9","87","30.05","344","0","0","0.00","0.00"
"01:34:58","54.6","51","87.5","30.05","344","0","0","0.00","0.00"
"01:39:58","54.5","51","87.8","30.05","344","0","0","0.00","0.00"
"01:44:58","54.5","51","88","30.05","344","0","0","0.00","0.00"
"01:49:57","54.4","50.9","88","30.05","344","0","0","0.00","0.00"
"01:54:59","54.3","50.8","88","30.05","344","0","0","0.00","0.00"
"01:59:58","54.2","50.7","88","30.05","344","0","0","0.00","0.00"
"02:04:59","54.2","50.7","88","30.05","344","0","0","0.00","0.00"
"02:09:59","54.2","50.7","88","30.05","344","0","0","0.00","0.00"
"02:14:56","54.3","50.8","88","30.05","344","0","0","0.00","0.00"
"02:19:59","54.3","50.8","88","30.05","344","0","0","0.00","0.00"
"02:24:59","54.3","50.8","88","30.05","344","0","0","0.00","0.00"
"02:29:58","54.4","50.9","88","30.05","344","0","0","0.00","0.00"
"02:34:58","54.3","50.8","88","30.04","344","0","0","0.00","0.00"
"02:39:58","54.3","50.8","88","30.04","344","0","0","0.00","0.00"
"02:44:58","54.2","50.7","88","30.04","344","0","0","0.00","0.00"
"02:49:58","54.2","50.7","88","30.04","344","0","0","0.00","0.00"
"02:54:57","54.1","50.6","88","30.04","344","0","0","0.00","0.00"
"02:59:57","54.1","50.7","88.3","30.04","344","0","0","0.00","0.00"
"03:04:59","54","50.8","89","30.04","344","0","0","0.00","0.00"
"03:09:59","53.9","50.7","89","30.04","344","0","0","0.00","0.00"
"03:14:56","53.8","50.6","89","30.04","344","0","0","0.00","0.00"
"03:19:59","53.7","50.5","89","30.04","344","0","0","0.00","0.00"
"03:24:59","53.6","50.4","89","30.04","344","0","0","0.00","0.00"
"03:29:58","53.5","50.3","89","30.04","344","0","0","0.00","0.00"
"03:34:58","53.4","50.2","89","30.04","344","0","0","0.00","0.00"
"03:39:58","53.4","50.2","89","30.04","344","0","0","0.00","0.00"
"03:44:56","53.3","50.1","89","30.04","344","0","0","0.00","0.00"
"03:49:58","53.3","50.1","89","30.04","344","0","0","0.00","0.00"
"03:54:56","53.3","50.2","89.4","30.04","344","0","0","0.00","0.00"
"03:59:56","53.4","50.5","90","30.04","344","0","0","0.00","0.00"
"04:04:58","53.5","50.6","90","30.04","344","0","0","0.00","0.00"
"04:09:58","53.5","50.3","89.1","30.04","344","0","0","0.00","0.00"
"04:14:56","53.4","50.2","89","30.04","344","0","0","0.00","0.00"
"04:19:59","53.2","50","89","30.04","344","0","0","0.00","0.00"
"04:24:58","53.1","49.9","89","30.04","344","0","0","0.00","0.00"
"04:29:56","53","50.1","89.9","30.04","344","0","0","0.00","0.00"
"04:34:59","53","50.1","90","30.04","344","0","0","0.00","0.00"
"04:39:59","53","50.1","90","30.04","344","0","0","0.00","0.00"
"04:44:56","52.9","50","90","30.04","344","0","0","0.00","0.00"
"04:49:59","52.8","49.9","90","30.04","344","0","0","0.00","0.00"
"04:54:59","52.6","49.8","90","30.04","344","0","0","0.00","0.00"
"04:59:59","52.5","49.8","90.7","30.04","344","0","0","0.00","0.00"
"05:04:59","52.4","49.8","91","30.04","344","0","0","0.00","0.00"
"05:09:59","52.3","49.8","91","30.04","344","0","0","0.00","0.00"
"05:14:56","52.2","49.7","91","30.05","344","0","0","0.00","0.00"
"05:19:56","52.1","49.6","91","30.05","344","0","0","0.00","0.00"
"05:24:59","52","49.5","91","30.05","344","0","0","0.00","0.00"
"05:29:59","52","49.5","91","30.05","344","0","0","0.00","0.00"
"05:34:59","51.9","49.4","91","30.05","344","0","0","0.00","0.00"
"05:39:58","51.8","49.3","91","30.05","344","0","0","0.00","0.00"
"05:44:57","51.7","49.5","92","30.05","344","0","0","0.00","0.00"
"05:49:59","51.6","49.4","92","30.05","344","0","0","0.00","0.00"
"05:54:57","51.5","49.3","92","30.05","344","0","0","0.00","0.00"
"05:59:56","51.5","49.3","92","30.05","344","0","0","0.00","0.00"
"06:04:57","51.5","49.3","92","30.05","344","0","0","0.00","0.00"
"06:09:58","51.5","49.3","92","30.05","344","0","0","0.00","0.00"
"06:14:59","51.4","49.2","92","30.06","344","0","0","0.00","0.00"
"06:19:57","51.4","49.2","92","30.06","344","0","0","0.00","0.00"
"06:24:56","51.4","49.3","92.7","30.06","344","0","0","0.00","0.00"
"06:29:59","51.3","49.2","92.3","30.06","344","0","0","0.00","0.00"
"06:34:57","51.3","49.3","93","30.06","344","0","0","0.00","0.00"
"06:39:56","51.2","49.2","93","30.06","344","0","0","0.00","0.00"
"06:44:56","51.2","49.2","93","30.06","344","0","0","0.00","0.00"
"06:49:58","51.4","49.4","93","30.06","344","0","0","0.00","0.00"
"06:54:57","51.6","49.6","93","30.06","344","0","0","0.00","0.00"
"06:59:56","51.8","49.8","93","30.07","344","0","0","0.00","0.00"
"07:04:56","51.8","49.6","92.2","30.07","344","0","0","0.00","0.00"
"07:09:56","51.9","49.6","92","30.07","344","0","0","0.00","0.00"
"07:14:57","52","49.7","92","30.07","344","0","0","0.00","0.00"
"07:19:56","52.2","49.9","92","30.07","344","0","0","0.00","0.00"
"07:24:59","52.4","50.1","92","30.07","115","0","1.2","0.00","0.00"
"07:29:58","52.7","50.4","92","30.07","132","0.4","2.4","0.00","0.00"
"07:34:56","53.4","50.8","91","30.07","132","0.7","2.4","0.00","0.00"
"07:39:59","54.2","51.3","90.1","30.07","132","0.7","2.4","0.00","0.00"
"07:44:58","54.8","51.5","88.7","30.08","132","1","2.4","0.00","0.00"
"07:49:56","55.6","51.9","87.3","30.08","131","0.8","3.6","0.00","0.00"
"07:54:58","56.4","52.1","85.5","30.08","130","1","2.4","0.00","0.00"
"07:59:57","57","52.4","84.5","30.08","130","0.8","2.4","0.00","0.00"
"08:04:57","57.6","52.7","83.9","30.08","144","0.2","3.6","0.00","0.00"
"08:09:57","58.2","52.9","82.4","30.08","210","1.3","4.8","0.00","0.00"
"08:14:56","58.7","52.9","81.1","30.08","288","1.3","6","0.00","0.00"
"08:19:57","59.2","52.9","79.7","30.08","290","1.6","4.8","0.00","0.00"
"08:24:59","59.5","53.3","79.9","30.08","288","2.5","7.2","0.00","0.00"
"08:29:56","59.7","53","78.4","30.08","276","2.5","6.9","0.00","0.00"
"08:34:58","60","53.1","78","30.08","274","2","6","0.00","0.00"
"08:39:57","60.2","53","77","30.08","319","2.2","6","0.00","0.00"
"08:44:59","60.6","53.3","76.8","30.08","327","1.7","7.2","0.00","0.00"
"08:49:57","61.1","53.4","75.8","30.08","314","2.8","7.2","0.00","0.00"
"08:54:59","61.4","53.4","75.2","30.08","301","2.9","8.4","0.00","0.00"
"08:59:56","61.6","53.7","75.3","30.08","292","2.7","6","0.00","0.00"
"09:04:56","61.8","53.8","75","30.08","325","1.8","8.4","0.00","0.00"
"09:09:59","62.1","53.9","74.5","30.08","332","3.2","8.1","0.00","0.00"
"09:14:59","62.4","54","74","30.08","311","3.4","6.9","0.00","0.00"
"09:19:58","62.8","54.9","75.2","30.08","321","2.4","7.2","0.00","0.00"
"09:24:57","63.2","54.4","73.1","30.08","308","3.9","8.4","0.00","0.00"
"09:29:58","63.7","54.4","71.8","30.08","346","3","7.2","0.00","0.00"
"09:34:56","64.3","55","71.7","30.08","330","3.2","7.2","0.00","0.00"
"09:39:57","65","55.3","70.6","30.08","263","2.4","5.8","0.00","0.00"
"09:44:57","65.5","55.1","69","30.08","330","4.4","10.8","0.00","0.00"
"09:49:58","65.9","55.3","68.8","30.08","261","3.3","9.2","0.00","0.00"
"09:54:59","66.6","55.6","67.9","30.08","247","2.3","6","0.00","0.00"
"09:59:56","67.2","56.3","68.1","30.08","247","2.4","6","0.00","0.00"
"10:04:57","67.6","55.9","66.3","30.08","271","3.3","6","0.00","0.00"
"10:09:57","67.9","55.6","64.8","30.08","337","4.5","12","0.00","0.00"
"10:14:58","68.5","56","64.5","30.08","347","3.4","12","0.00","0.00"
"10:19:59","68.4","55.9","64.3","30.08","313","3","8.1","0.00","0.00"
"10:24:56","68.5","55.6","63.4","30.08","339","4.4","14.4","0.00","0.00"
"10:29:57","68.7","55.9","63.7","30.08","341","5.6","15","0.00","0.00"
"10:34:59","69","56.1","63.4","30.07","256","2.7","7.2","0.00","0.00"
"10:39:57","69.1","56.1","63.3","30.07","308","3.4","10.8","0.00","0.00"
"10:44:56","69.6","56","62.1","30.07","313","2.9","8.4","0.00","0.00"
"10:49:57","69.7","55.3","60.3","30.07","338","4.1","10.8","0.00","0.00"
"10:54:56","69.8","55.6","60.7","30.07","302","3.8","10.8","0.00","0.00"
"10:59:58","70","55.6","60.2","30.07","329","3.3","9.2","0.00","0.00"
"11:04:57","70.4","56.1","60.6","30.07","301","4","12","0.00","0.00"
"11:09:56","70.5","55.8","59.7","30.07","291","2.8","7.2","0.00","0.00"
"11:14:56","70.7","56.4","60.6","30.07","288","2.8","8.4","0.00","0.00"
"11:19:58","70.7","55.8","59.2","30.07","260","3.5","8.4","0.00","0.00"
"11:24:59","71.2","56.3","59.5","30.07","327","3.8","8.4","0.00","0.00"
"11:29:57","70.9","55.4","58","30.07","343","4","9.6","0.00","0.00"
"11:34:59","71.5","56.7","59.6","30.06","256","3.6","10.8","0.00","0.00"
"11:39:58","72.2","56.1","56.9","30.06","302","4.4","13.2","0.00","0.00"
"11:44:59","72.3","56.1","56.8","30.06","330","4.9","11.5","0.00","0.00"
"11:49:57","72.2","56.1","57.1","30.05","309","4","8.4","0.00","0.00"
"11:54:59","73.1","57.1","57.4","30.05","295","3.7","8.1","0.00","0.00"
"11:59:57","73.3","56.6","55.9","30.05","262","3.3","6.9","0.00","0.00"
"12:04:58","73.7","56.6","55.2","30.05","331","5.1","16.1","0.00","0.00"
"12:09:57","73.9","56.5","54.5","30.05","337","3.9","12","0.00","0.00"
"12:14:56","74.3","56","52.9","30.05","343","5.2","11.5","0.00","0.00"
"12:19:58","74.3","56.2","53.3","30.05","335","4.2","15","0.00","0.00"
"12:24:56","74.4","56.8","54.2","30.05","300","5.1","15","0.00","0.00"
"12:29:58","75","57.1","53.8","30.05","313","3.9","13.2","0.00","0.00"
"12:34:59","74.5","56","52.7","30.04","341","5.8","16.8","0.00","0.00"
"12:39:59","74.3","56.3","53.5","30.04","337","5.1","10.8","0.00","0.00"
"12:44:56","74.9","56.7","53.3","30.04","329","3.5","10.8","0.00","0.00"
"12:49:58","75","56.8","53.4","30.03","329","4.7","12","0.00","0.00"
"12:54:56","74.4","56.8","54.2","30.03","345","2.7","9.6","0.00","0.00"
"12:59:58","74.7","56.8","53.8","30.03","319","2.8","7.2","0.00","0.00"
"13:04:56","75.6","58.4","55.2","30.03","323","1.2","7.2","0.00","0.00"
"13:09:56","76.3","59.1","55.3","30.03","233","2.5","8.4","0.00","0.00"
"13:12:15","76.6","58.7","54.1","30.03","241","2.8","5.8","0.00","0.00"
"15:04:58","80.2","53.5","39.7","29.97","224","1.9","4.8","0.00","0.00"
"15:09:59","80.6","52.3","37.7","29.97","271","2.5","6","0.00","0.00"
"15:14:59","80.8","50.2","34.5","29.97","345","4.2","8.4","0.00","0.00"
"15:19:59","80.4","51.6","36.9","29.97","336","4","13.2","0.00","0.00"
"15:24:57","80.6","52.4","37.8","29.97","318","1.8","8.1","0.00","0.00"
"15:29:58","80.4","51.4","36.6","29.97","327","3.5","8.4","0.00","0.00"
"15:34:56","81.1","51.8","36.3","29.97","323","3.7","12","0.00","0.00"
"15:39:58","80.9","51.5","36.1","29.97","272","1.8","6.9","0.00","0.00"
"15:44:56","80.9","52.2","37.2","29.97","347","2.6","7.2","0.00","0.00"
"15:49:57","81.4","53","37.6","29.97","271","3.6","7.2","0.00","0.00"
"15:54:58","81.1","52.1","36.7","29.97","194","3.7","8.4","0.00","0.00"
"15:59:59","81.1","50.5","34.6","29.97","294","4","8.4","0.00","0.00"
"16:04:57","81.5","51.9","35.9","29.96","219","3.5","7.2","0.00","0.00"
"16:09:58","81.9","50.9","34.2","29.96","338","2.1","6.9","0.00","0.00"
"16:14:57","81.9","50.4","33.6","29.96","261","2.9","9.6","0.00","0.00"
"16:19:58","82","50.8","34","29.96","327","2.6","7.2","0.00","0.00"
"16:24:59","82","51.1","34.4","29.96","329","1.5","6","0.00","0.00"
"16:29:57","81.8","52.1","35.8","29.96","256","2.4","6","0.00","0.00"
"16:34:58","81.5","48.5","31.7","29.96","261","2.9","12","0.00","0.00"
"16:39:57","81.2","49.9","33.7","29.96","223","3","6","0.00","0.00"
"16:44:58","81.5","49","32.3","29.96","254","2.2","4.6","0.00","0.00"
"16:49:59","81.3","49.4","32.9","29.96","251","1.5","4.8","0.00","0.00"
"16:54:57","81.6","51","34.6","29.96","233","1","6","0.00","0.00"
"16:59:58","82","49.6","32.5","29.96","306","2.3","6","0.00","0.00"
"17:04:56","82.2","50.7","33.6","29.96","237","2.3","4.8","0.00","0.00"
"17:09:57","81.5","48.9","32.2","29.96","289","2.5","4.8","0.00","0.00"
"17:14:56","81.4","49.4","32.9","29.96","336","2.1","7.2","0.00","0.00"
"17:19:57","81.6","48.5","31.6","29.95","360","2","3.6","0.00","0.00"
"17:24:59","81.7","49.4","32.6","29.95","360","1.3","3.6","0.00","0.00"
"17:29:56","81.7","49.8","33.1","29.95","360","1.3","3.6","0.00","0.00"
"17:34:58","81.3","50.8","34.7","29.95","358","0.8","4.8","0.00","0.00"
"17:39:57","81.3","49.6","33.2","29.95","351","2.2","4.8","0.00","0.00"
"17:44:59","81.8","49.7","32.8","29.95","348","1.1","3.6","0.00","0.00"
"17:49:56","82","48.3","30.9","29.94","348","1.8","3.6","0.00","0.00"
"17:54:58","82","47.8","30.3","29.94","346","2.1","4.8","0.00","0.00"
"17:59:59","81.7","48","30.9","29.94","346","0.8","3.5","0.00","0.00"
"18:04:58","81.1","48.6","32.1","29.94","344","1.1","3.6","0.00","0.00"
"18:09:59","80.4","47.8","32","29.94","344","1","3.6","0.00","0.00"
"18:14:58","79.8","48.1","33","29.95","344","0.5","3.5","0.00","0.00"
"18:19:59","79.4","47.8","33","29.95","344","0.9","2.4","0.00","0.00"
"18:24:57","79.1","49.9","36.2","29.95","344","0.4","1.2","0.00","0.00"
"18:29:58","78.6","53.2","41.4","29.95","344","0.4","1.2","0.00","0.00"
"18:34:58","77.9","52.7","41.6","29.95","344","0","1.2","0.00","0.00"
"18:39:59","77.1","52.7","42.7","29.95","344","0.1","1.2","0.00","0.00"
"18:44:59","76.5","52.7","43.7","29.95","344","0.2","1.2","0.00","0.00"
"18:49:59","75.7","52.6","44.6","29.95","344","0.3","1.2","0.00","0.00"
"18:54:56","74.7","50.9","43.4","29.95","344","0","1.2","0.00","0.00"
"18:59:57","73.9","50.9","44.5","29.96","344","0","0","0.00","0.00"
"19:04:58","73.3","52.6","48.3","29.96","344","0","0","0.00","0.00"
"19:09:58","72.7","52.4","49.1","29.96","344","0","0","0.00","0.00"
"19:14:56","72","51.5","48.5","29.96","344","0","0","0.00","0.00"
"19:19:56","71.4","52.6","51.5","29.96","344","0","0","0.00","0.00"
"19:24:57","70.7","53.1","53.7","29.96","344","0","0","0.00","0.00"
"19:29:58","70.1","52.7","54.2","29.96","344","0","1.2","0.00","0.00"
"19:34:59","69.6","52.5","54.6","29.96","344","0","1.2","0.00","0.00"
"19:39:56","69.2","53.2","56.7","29.96","344","0.1","1.2","0.00","0.00"
"19:44:58","68.7","52.5","56.4","29.96","344","0","0","0.00","0.00"
"19:49:58","68.1","51.2","54.8","29.96","344","0","0","0.00","0.00"
"19:54:59","67.4","51.1","55.9","29.96","344","0","1.2","0.00","0.00"
"19:59:59","67","52.2","59","29.96","344","0.3","1.2","0.00","0.00"
"20:04:57","66.7","52.4","60","29.96","344","0","0","0.00","0.00"
"20:09:56","66.3","52.4","61.1","29.96","344","0","0","0.00","0.00"
"20:14:58","65.9","53","63.2","29.96","344","0.1","1.2","0.00","0.00"
"20:19:59","65.5","53.1","64.2","29.96","344","0","0","0.00","0.00"
"20:24:56","65.3","53.2","65","29.96","344","0","0","0.00","0.00"
"20:29:56","65.1","53","65","29.97","344","0","0","0.00","0.00"
"20:34:57","64.7","53","65.8","29.97","344","0","0","0.00","0.00"
"20:39:59","64.3","53","66.8","29.97","344","0","0","0.00","0.00"
"20:44:56","63.9","53.2","68.4","29.97","344","0","0","0.00","0.00"
"20:49:56","63.5","53.1","68.9","29.97","344","0","0","0.00","0.00"
"20:54:57","63.2","53.2","69.9","29.97","344","0","0","0.00","0.00"
"20:59:58","63","53.3","70.7","29.98","344","0","0","0.00","0.00"
"21:04:59","62.9","53.4","71","29.98","344","0","0","0.00","0.00"
"21:09:59","62.7","53.2","71.2","29.98","344","0","0","0.00","0.00"
"21:14:57","62.3","53.3","72.5","29.98","344","0","0","0.00","0.00"
"21:19:57","61.9","53.4","73.8","29.98","344","0","0","0.00","0.00"
"21:24:58","61.6","53.4","74.6","29.98","344","0","2.4","0.00","0.00"
"21:29:59","61.2","53.6","76","29.98","206","1.2","6","0.00","0.00"
"21:34:59","61.1","53.2","75.2","29.98","200","0.1","1.2","0.00","0.00"
"21:39:58","61.2","53.3","75.3","29.98","200","1.1","2.4","0.00","0.00"
"21:44:59","61.3","53.3","75","29.98","200","1.3","2.4","0.00","0.00"
"21:49:56","61.2","53.6","76","29.98","200","0","1.2","0.00","0.00"
"21:54:57","61.1","53.3","75.5","29.98","200","0.1","1.2","0.00","0.00"
"21:59:57","61","53","75.1","29.98","200","0","1.2","0.00","0.00"
"22:04:58","60.7","53.1","75.9","29.98","200","0","0","0.00","0.00"
"22:09:57","60.4","52.9","76.2","29.98","200","0","0","0.00","0.00"
"22:14:59","60.1","52.9","77","29.98","200","0","0","0.00","0.00"
"22:19:56","59.9","52.8","77.5","29.98","200","0","0","0.00","0.00"
"22:24:57","59.7","52.8","78","29.98","200","0","0","0.00","0.00"
"22:29:57","59.5","52.8","78.4","29.98","200","0","0","0.00","0.00"
"22:34:58","59.3","52.8","79","29.98","200","0","0","0.00","0.00"
"22:39:56","59.1","52.6","79","29.98","200","0","0","0.00","0.00"
"22:44:57","58.9","52.6","79.5","29.98","200","0","0","0.00","0.00"
"22:49:57","58.8","52.6","80","29.98","200","0","0","0.00","0.00"
"22:54:58","58.6","52.4","80.1","29.98","200","0","0","0.00","0.00"
"22:59:58","58.3","52.5","81","29.98","200","0","0","0.00","0.00"
"23:04:59","58.1","52.3","81.3","29.97","200","0","0","0.00","0.00"
"23:09:59","57.9","52.4","82","29.97","200","0","0","0.00","0.00"
"23:14:57","57.8","52.3","82","29.97","200","0","0","0.00","0.00"
"23:19:56","57.8","52.3","82","29.97","200","0","0","0.00","0.00"
"23:24:56","57.8","52.6","82.7","29.97","200","0","0","0.00","0.00"
"23:29:59","57.8","52.7","83","29.97","200","0","0","0.00","0.00"
"23:34:57","57.7","52.6","83","29.97","200","0","0","0.00","0.00"
"23:39:58","57.5","52.5","83.1","29.97","200","0","0","0.00","0.00"
"23:44:59","57.3","52.4","83.5","29.97","200","0","0","0.00","0.00"
"23:49:59","57.2","52.4","84","29.97","200","0","0","0.00","0.00"
"23:54:57","57","52.2","84","29.97","200","0","0","0.00","0.00"
